Simultaneous Nadir Overpasses (SNOs) Predictions

Prediction of SNOs between GOES-16 and TERRA Satellite Orbit:

Table of predicted SNOs for the next 14.0 days since TLE Epoch: 9/21/2024
Index Date Time (GOES-16) GOES-16 Lat,Lon TERRA Lat,Lon Distance(km) Time Diff (sec)
1 09/21/2024 14:42:33 -0.06, -75.21 -0.10, -75.05 17.59 80
2 09/24/2024 02:42:04 0.06, -75.20 -0.03, -75.62 47.56 80
3 09/26/2024 02:26:56 0.05, -75.21 0.87, -71.33 441.61 80
4 09/26/2024 14:44:04 -0.05, -75.23 0.14, -76.14 103.69 80
5 09/28/2024 14:26:15 -0.05, -75.25 -0.74, -71.85 386.87 80
6 09/29/2024 02:46:13 0.05, -75.25 -0.26, -76.70 165.59 80
7 10/01/2024 02:31:04 0.05, -75.28 0.68, -72.41 326.49 80
8 10/01/2024 14:50:51 -0.05, -75.30 0.38, -77.22 218.15 80
9 10/03/2024 14:30:21 -0.05, -75.34 -0.53, -72.92 275.00 80
10 10/04/2024 02:52:57 0.05, -75.34 -0.49, -77.77 276.80 80
